PST,Max TemperatureF,Mean TemperatureF,Min TemperatureF,Max Dew PointF,MeanDew PointF,Min DewpointF,Max Humidity, Mean Humidity, Min Humidity, Max Sea Level PressureIn, Mean Sea Level PressureIn, Min Sea Level PressureIn, Max VisibilityMiles, Mean VisibilityMiles, Min VisibilityMiles, Max Wind SpeedMPH, Mean Wind SpeedMPH, Max Gust SpeedMPH,PrecipitationIn, CloudCover, Events, WindDirDegrees
2012-11-1,66,60,53,58,56,52,100,91,68,30.06,30.03,30.01,10,9,2,13,6,,0.12,5,Rain,136
2012-11-2,66,56,46,54,50,46,100,88,60,30.10,30.07,30.04,10,8,1,7,3,,0.00,1,,306
2012-11-3,73,62,52,55,52,51,100,79,46,30.18,30.13,30.09,10,10,9,6,2,,0.00,1,,284
2012-11-4,73,62,50,55,53,49,97,79,51,30.25,30.19,30.16,10,10,10,4,0,,0.00,0,,285
2012-11-5,75,63,51,56,54,50,96,75,46,30.20,30.14,30.07,10,10,10,5,2,,0.00,0,,76
2012-11-6,77,64,51,55,52,49,92,70,42,30.13,30.07,30.01,10,10,10,5,1,,0.00,0,,12
2012-11-7,73,62,52,56,51,44,89,69,40,30.05,29.96,29.83,10,10,5,22,4,30,0.00,0,,153
2012-11-8,57,52,46,51,44,39,86,73,53,29.90,29.85,29.81,10,10,10,24,18,32,0.00,6,Rain,154
2012-11-9,53,48,43,41,39,31,82,72,43,29.98,29.94,29.90,10,10,10,13,7,,0.00,5,Rain,125
2012-11-10,54,46,39,41,38,31,93,73,41,30.29,30.11,29.97,10,10,10,10,5,,0.00,2,,134
2012-11-11,55,46,36,37,35,33,89,69,44,30.42,30.37,30.30,10,10,3,8,4,,0.00,0,,332
2012-11-12,61,51,41,41,38,34,93,68,36,30.43,30.36,30.30,10,10,7,7,2,,0.00,1,,307
2012-11-13,60,50,39,45,41,38,93,71,44,30.29,30.22,30.15,10,10,10,6,2,,0.00,3,,304
2012-11-14,66,55,44,50,47,43,97,80,52,30.17,30.12,30.06,10,10,8,5,2,,0.00,0,,334
2012-11-15,66,54,43,48,45,41,97,74,43,30.08,30.03,29.97,10,10,8,6,1,,0.00,0,,117
2012-11-16,57,54,51,54,49,44,100,87,62,30.05,30.00,29.94,10,5,1,6,3,,0.41,7,Rain,317
2012-11-17,60,57,54,57,55,54,100,96,90,29.99,29.89,29.84,10,7,1,25,13,33,1.33,8,Rain,151
2012-11-18,57,52,48,54,48,42,100,82,56,30.21,30.10,29.99,10,10,8,16,12,,0.00,5,,149
2012-11-19,63,58,54,49,46,42,69,62,53,30.26,30.20,30.17,10,10,10,15,7,,0.00,8,,129
2012-11-20,61,58,54,56,53,47,96,85,64,30.17,30.08,30.01,10,8,2,25,14,32,0.43,8,Rain,136
2012-11-21,61,56,46,56,54,46,97,91,75,30.23,30.13,30.05,10,10,8,22,16,30,0.00,5,Rain,144
2012-11-22,61,52,43,47,45,41,97,84,56,30.28,30.23,30.20,10,10,10,7,3,,0.00,0,,344
2012-11-23,63,53,43,50,47,43,100,85,58,30.31,30.25,30.20,10,10,6,5,3,,0.00,0,,350
2012-11-24,63,51,39,51,45,40,100,84,54,30.22,30.14,30.06,10,10,7,5,0,,0.00,0,,66
2012-11-25,63,54,44,49,46,42,97,83,60,30.06,30.01,29.94,10,10,9,6,2,,0.00,0,,315
2012-11-26,61,52,43,47,44,39,93,79,56,30.11,30.06,30.00,10,10,7,6,3,,0.00,0,,15
2012-11-27,55,48,41,48,44,40,97,89,69,30.14,30.09,30.05,10,8,4,9,2,,0.00,0,,162
2012-11-28,57,52,48,55,51,46,97,92,80,30.06,29.97,29.89,10,6,1,18,8,26,0.72,7,Rain,146
2012-11-29,61,58,55,56,53,48,96,86,64,30.07,29.94,29.77,10,8,2,32,17,40,0.37,6,Rain,147
2012-11-30,60,58,57,58,57,55,100,96,90,29.99,29.85,29.76,10,8,2,33,22,46,1.04,7,Rain,163